Weather History for Columbia Airport, CA

Change the Weather History Date:

Thursday, April 10, 2014

  Actual Average (KMOD) Record (KMOD)
Temperature  
Mean Temperature 61 °F -  
Max Temperature 78 °F 73 °F 93 °F (1988)
Min Temperature 44 °F 48 °F 34 °F (1999)
Degree Days  
Heating Degree Days 4 5  
Month to date heating degree days 57  
Since 1 July heating degree days 2062  
Cooling Degree Days 0 1  
Month to date cooling degree days 6  
Year to date cooling degree days 11  
Growing Degree Days 11 (Base 50)    
Moisture  
Dew Point 45 °F    
Average Humidity 60    
Maximum Humidity 93    
Minimum Humidity 29    
Precipitation  
Precipitation 0.00 in 0.03 in 0.91 in (1982)
Month to date precipitation 0.38  
Year to date precipitation 7.41  
Since 1 July precipitation 11.77  
Snow  
Snow 0.00 in - - ()
Month to date snowfall  
Since 1 July snowfall  
Snow Depth -    
Sea Level Pressure  
Sea Level Pressure 30.00 in    
Wind  
Wind Speed 2 mph (WSW)    
Max Wind Speed 8 mph    
Max Gust Speed -    
Visibility 10 miles    
Events      
T = Trace of Precipitation, MM = Missing Value Source: NWS Daily Summary

Daily Weather History Graph

Daily Weather History Graph

Search for Another Location

Airport:

Trip Planner

Search our weather history database for the weather conditions in past years. The results will help you decide how hot, cold, wet, or windy it might be!

Date:

Astronomy

Apr. 10, 2014 Rise Set
Actual Time 6:33 AM PDT 7:33 PM PDT
Civil Twilight 6:06 AM PDT 8:00 PM PDT
Nautical Twilight 5:34 AM PDT 8:32 PM PDT
Astronomical Twilight 5:01 AM PDT 9:05 PM PDT
Moon 3:25 PM PDT (4/10) 3:54 AM PDT (4/10)
Length of Visible Light 13h 53m
Length of Day
12h 59m
Waxing Gibbous, 80% of the Moon is Illuminated
Apr 10
Waxing Gibbous
Apr 15
Full
Apr 22
Last Quarter
Apr 28
New
May 6
First Quarter

Hourly Weather History & Observations

Time (PDT) Temp. Windchill Dew Point Humidity Pressure Visibility Wind Dir Wind Speed Gust Speed Precip Events Conditions
12:15 AM 48.2 °F - 46.4 °F 93% 30.05 in 10.0 mi Calm Calm - N/A   Clear
12:55 AM 48.2 °F - 44.6 °F 87% 30.05 in 10.0 mi Calm Calm - N/A   Clear
1:15 AM 48.2 °F - 44.6 °F 87% 30.05 in 10.0 mi Calm Calm - N/A   Clear
1:35 AM 48.2 °F - 44.6 °F 87% 30.04 in 10.0 mi Calm Calm - N/A   Clear
1:55 AM 48.2 °F - 44.6 °F 87% 30.04 in 10.0 mi Calm Calm - N/A   Clear
2:15 AM 46.4 °F - 44.6 °F 93% 30.03 in 10.0 mi Calm Calm - N/A   Clear
2:35 AM 46.4 °F - 44.6 °F 93% 30.03 in 10.0 mi Calm Calm - N/A   Clear
2:55 AM 46.4 °F - 42.8 °F 87% 30.02 in 10.0 mi Calm Calm - N/A   Clear
3:15 AM 46.4 °F 44.3 °F 44.6 °F 93% 30.02 in 10.0 mi NE 4.6 mph - N/A   Clear
3:55 AM 44.6 °F - 42.8 °F 93% 30.02 in 10.0 mi Calm Calm - N/A   Clear
4:15 AM 44.6 °F - 42.8 °F 93% 30.02 in 10.0 mi Calm Calm - N/A   Clear
4:35 AM 44.6 °F 43.1 °F 41.0 °F 87% 30.02 in 10.0 mi NE 3.5 mph - N/A   Clear
4:55 AM 44.6 °F - 41.0 °F 87% 30.02 in 10.0 mi Calm Calm - N/A   Clear
5:15 AM 44.6 °F - 41.0 °F 87% 30.01 in 10.0 mi Calm Calm - N/A   Clear
5:35 AM 44.6 °F - 41.0 °F 87% 30.02 in 10.0 mi Calm Calm - N/A   Clear
5:55 AM 44.6 °F - 41.0 °F 87% 30.02 in 10.0 mi Calm Calm - N/A   Clear
6:15 AM 44.6 °F - 41.0 °F 87% 30.02 in 10.0 mi Calm Calm - N/A   Clear
6:55 AM 44.6 °F - 41.0 °F 87% 30.03 in 10.0 mi Calm Calm - N/A   Clear
7:15 AM 46.4 °F - 42.8 °F 87% 30.03 in 10.0 mi Calm Calm - N/A   Clear
7:35 AM 50.0 °F - 44.6 °F 82% 30.03 in 10.0 mi Calm Calm - N/A   Clear
7:55 AM 55.4 °F - 46.4 °F 72% 30.03 in 10.0 mi Calm Calm - N/A   Clear
8:15 AM 59.0 °F - 44.6 °F 59% 30.03 in 10.0 mi North 3.5 mph - N/A   Clear
8:35 AM 62.6 °F - 44.6 °F 52% 30.02 in 10.0 mi NNW 3.5 mph - N/A   Clear
8:55 AM 66.2 °F - 44.6 °F 46% 30.02 in 10.0 mi NNW 3.5 mph - N/A   Clear
9:15 AM 68.0 °F - 44.6 °F 43% 30.03 in 10.0 mi Calm Calm - N/A   Clear
9:35 AM 71.6 °F - 39.2 °F 31% 30.03 in 10.0 mi Calm Calm - N/A   Clear
9:55 AM 73.4 °F - 42.8 °F 33% 30.03 in 10.0 mi SW 3.5 mph - N/A   Clear
10:15 AM 73.4 °F - 46.4 °F 38% 30.04 in 10.0 mi SSW 4.6 mph - N/A   Clear
10:35 AM 75.2 °F - 44.6 °F 34% 30.04 in 10.0 mi SSW 4.6 mph - N/A   Clear
10:55 AM 75.2 °F - 42.8 °F 31% 30.03 in 10.0 mi South 4.6 mph - N/A   Clear
11:15 AM 77.0 °F - 42.8 °F 29% 30.03 in 10.0 mi South 5.8 mph - N/A   Clear
11:35 AM 75.2 °F - 44.6 °F 34% 30.03 in 10.0 mi West 6.9 mph - N/A   Clear
11:55 AM 75.2 °F - 41.0 °F 29% 30.03 in 10.0 mi West 6.9 mph - N/A   Clear
12:15 PM 75.2 °F - 44.6 °F 34% 30.03 in 10.0 mi WSW 6.9 mph - N/A   Clear
12:35 PM 75.2 °F - 46.4 °F 36% 30.03 in 10.0 mi WSW 5.8 mph - N/A   Clear
12:55 PM 77.0 °F - 48.2 °F 36% 30.02 in 10.0 mi West 8.1 mph - N/A   Clear
1:15 PM 77.0 °F - 48.2 °F 36% 30.02 in 10.0 mi West 5.8 mph - N/A   Clear
1:35 PM 77.0 °F - 48.2 °F 36% 30.02 in 10.0 mi West 3.5 mph - N/A   Clear
1:55 PM 77.0 °F - 48.2 °F 36% 30.01 in 10.0 mi SW 5.8 mph - N/A   Clear
2:15 PM 77.0 °F - 50.0 °F 39% 30.00 in 10.0 mi SW 6.9 mph - N/A   Clear
2:35 PM 77.0 °F - 48.2 °F 36% 29.99 in 10.0 mi SW 3.5 mph - N/A   Clear
2:55 PM 77.0 °F - 46.4 °F 34% 29.98 in 10.0 mi West 4.6 mph - N/A   Clear
3:15 PM 78.8 °F - 44.6 °F 30% 29.98 in 10.0 mi WSW 8.1 mph - N/A   Clear
3:35 PM 77.0 °F - 48.2 °F 36% 29.97 in 10.0 mi WSW 8.1 mph - N/A   Clear
3:55 PM 77.0 °F - 48.2 °F 36% 29.97 in 10.0 mi SW 8.1 mph - N/A   Clear
4:15 PM 77.0 °F - 46.4 °F 34% 29.96 in 10.0 mi SW 8.1 mph - N/A   Clear
4:35 PM 77.0 °F - 42.8 °F 29% 29.96 in 10.0 mi SSW 6.9 mph - N/A   Clear
4:55 PM 75.2 °F - 42.8 °F 31% 29.95 in 10.0 mi SSW 4.6 mph - N/A   Clear
5:15 PM 75.2 °F - 44.6 °F 34% 29.94 in 10.0 mi SW 4.6 mph - N/A   Clear
5:35 PM 75.2 °F - 42.8 °F 31% 29.94 in 10.0 mi SSW 4.6 mph - N/A   Clear
5:55 PM 75.2 °F - 42.8 °F 31% 29.94 in 10.0 mi West 5.8 mph - N/A   Clear
6:35 PM 71.6 °F - 44.6 °F 38% 29.95 in 10.0 mi SW 3.5 mph - N/A   Clear
6:55 PM 68.0 °F - 46.4 °F 46% 29.95 in 10.0 mi Calm Calm - N/A   Clear
7:15 PM 64.4 °F - 46.4 °F 52% 29.95 in 10.0 mi NE 3.5 mph - N/A   Clear
7:35 PM 62.6 °F - 46.4 °F 55% 29.95 in 10.0 mi NE 3.5 mph - N/A   Clear
7:55 PM 59.0 °F - 46.4 °F 63% 29.95 in 10.0 mi NE 3.5 mph - N/A   Clear
8:15 PM 59.0 °F - 46.4 °F 63% 29.95 in 10.0 mi NE 3.5 mph - N/A   Clear
8:35 PM 59.0 °F - 44.6 °F 59% 29.95 in 10.0 mi NNE 3.5 mph - N/A   Clear
8:55 PM 55.4 °F - 44.6 °F 67% 29.96 in 10.0 mi Calm Calm - N/A   Clear
9:15 PM 55.4 °F - 46.4 °F 72% 29.96 in 10.0 mi Calm Calm - N/A   Clear
9:35 PM 53.6 °F - 46.4 °F 77% 29.96 in 10.0 mi Calm Calm - N/A   Clear
9:55 PM 53.6 °F - 46.4 °F 77% 29.97 in 10.0 mi Calm Calm - N/A   Clear
10:15 PM 53.6 °F - 46.4 °F 77% 29.97 in 10.0 mi NNE 3.5 mph - N/A   Clear
10:35 PM 53.6 °F - 46.4 °F 77% 29.97 in 10.0 mi Calm Calm - N/A   Clear
10:55 PM 53.6 °F - 46.4 °F 77% 29.97 in 10.0 mi Calm Calm - N/A   Clear
11:15 PM 51.8 °F - 46.4 °F 82% 29.97 in 10.0 mi Calm Calm - N/A   Clear
11:35 PM 53.6 °F - 46.4 °F 77% 29.97 in 10.0 mi Calm Calm - N/A   Clear
11:55 PM 50.0 °F - 46.4 °F 87% 29.97 in 10.0 mi Calm Calm - N/A   Clear